Regional Weather Roundup
Issued by NWS

Home | Current Version | Previous Version | Graphics & Text | Print | Product List | Glossary Off
Versions: 1 2 3 4 5 6 7 8 9 10 11 12 13 14 15 16 17 18 19 20 21 22 23 24 25 26 27 28 29 30 31 32 33 34 35 36 37 38 39 40 41 42 43 44 45 46 47 48 49 50

000
ASUS43 KMKX 021611
RWRWI

WISCONSIN REGIONAL WEATHER ROUNDUP
NATIONAL WEATHER SERVICE MILWAUKEE/SULLIVAN WI
1100 AM CDT TUE SEP 02 2014

NOTE: "FAIR" INDICATES FEW OR NO CLOUDS BELOW 12,000 FEET WITH NO
SIGNIFICANT WEATHER AND/OR OBSTRUCTIONS TO VISIBILITY.

WIZ001-002-006>008-014>016-023>028-021700-
NORTHWEST WISCONSIN

CITY           SKY/WX    TMP DP  RH WIND       PRES   REMARKS
SUPERIOR ARPT  SUNNY     69  58  68 SW6       29.83S
ASHLAND        SUNNY     70  55  59 W7        29.85R
HAYWARD        SUNNY     67  55  65 SW5       29.88R
SIREN          SUNNY     69  55  60 SW3       29.88S
RICE LAKE      SUNNY     68  55  62 W6        29.90S
LADYSMITH      SUNNY     68  54  60 W3        29.90S
EAU CLAIRE     SUNNY     71  56  58 NW6       29.87F
MENOMONIE      SUNNY     71  57  61 W6        29.89R
NEW RICHMOND   SUNNY     70  56  60 W5        29.90S
OSCEOLA        SUNNY     69  57  66 CALM      29.92S
$$

WIZ003>005-009-010-017-018-021700-
NORTH CENTRAL WISCONSIN

CITY           SKY/WX    TMP DP  RH WIND       PRES   REMARKS
WOODRUFF       PTSUNNY   64  56  75 W6        29.88S
RHINELANDER    PTSUNNY   65  55  70 W8        29.89R
EAGLE RIVER    PTSUNNY   64  54  68 W9        29.87R
LAND O LAKES   PTSUNNY   66  55  67 W5        29.87S
PHILLIPS       SUNNY     65  55  69 SW6       29.88S
TOMAHAWK       PTSUNNY   65  54  66 W6        29.89S
MEDFORD        MOSUNNY   66  57  72 NW7       29.89S
MERRILL        PTSUNNY   65  60  81 NW6       29.88S
$$

WIZ029-030-035-036-043>047-021700-
CENTRAL WISCONSIN

CITY           SKY/WX    TMP DP  RH WIND       PRES   REMARKS
WAUSAU         CLOUDY    67  59  75 W6        29.87S
MOSINEE        PTSUNNY   66  63  88 W3        29.90R
MARSHFIELD     MOSUNNY   70  61  73 W10       29.89S
STEVENS POINT  CLOUDY    64  59  82 SW9       29.90R
WAUPACA        CLOUDY    72  59  64 W5        29.89F
WAUTOMA        PTSUNNY   74  59  59 W13       29.90S
WISC RAPIDS    PTSUNNY   70  58  65 VRB6      29.91R
CAMP DOUGLAS   NOT AVBL
$$

WIZ011>013-019>022-031-037>040-048>050-021700-
NORTHEAST WISCONSIN

CITY           SKY/WX    TMP DP  RH WIND       PRES   REMARKS
ANTIGO         PTSUNNY   63  58  84 W9        29.90R
STURGEON BAY   CLOUDY    66  57  72 W15       29.90R
GREEN BAY      CLOUDY    68  61  78 NW9       29.90R
MANITOWOC      CLOUDY    71  61  70 W5        29.88S
APPLETON       PTSUNNY   68  63  83 W13       29.91R
CLINTONVILLE   LGT RAIN  63  59  88 S6        29.87F
OSHKOSH        CLOUDY    69  62  78 VRB5      29.89R HAZE
$$

WIZ032>034-041-042-053>061-021700-
SOUTHWEST WISCONSIN

CITY           SKY/WX    TMP DP  RH WIND       PRES   REMARKS
LA CROSSE      SUNNY     72  57  59 VRB6      29.90F
SPARTA         MOSUNNY   71  55  58 W9        29.91S
VIROQUA        FAIR      72  58  61 W5        29.92S
BOSCOBEL       SUNNY     74  59  59 NW6       29.91F
PRAIRIE DU CHI SUNNY     71  58  63 SW3       29.91S
PLATTEVILLE    FAIR      68  60  76 CALM      29.94R
$$

WIZ056-057-062-063-064-067-068-021700-
SOUTH CENTRAL WISCONSIN

CITY           SKY/WX    TMP DP  RH WIND       PRES   REMARKS
BARABOO/DELLS  PTSUNNY   68  57  67 NW6       29.91S
LONE ROCK      SUNNY     73  61  65 VRB5      29.91F
WATERTOWN      CLOUDY    73  64  73 SW6       29.89F
MADISON        CLOUDY    69  59  70 NW6       29.91S
MIDDLETON      PTSUNNY   70  60  71 W5        29.92S
MONROE         PTSUNNY   68  59  73 SW10      29.92F
JANESVILLE     PTSUNNY   72  61  68 W12       29.90F
$$

WIZ051-052-058>065-066-070>072-021700-
SOUTHEAST WISCONSIN

CITY           SKY/WX    TMP DP  RH WIND       PRES   REMARKS
MILWAUKEE      PTSUNNY   76  58  53 SW7       29.89F
WAUKESHA       MOSUNNY   72  61  68 W7        29.91F
MILWAUKEE/TIMM SUNNY     73  57  56 SW7       29.90S
RACINE         MOSUNNY   77  60  55 W6        29.91S
BURLINGTON     MOSUNNY   73  59  61 W7        29.91S
KENOSHA        MOSUNNY   76  60  57 W8        29.91S
FOND DU LAC    CLOUDY    69  62  78 MISG      29.90R
SHEBOYGAN      CLOUDY    72  60  66 SW8       29.89R
WEST BEND      CLOUDY    70  59  68 SW5       29.89F
JUNEAU         CLOUDY    67  62  84 SW10      29.91S
$$

LSZ147-162-021700-
LAKE SUPERIOR

STATION/POSITION TIME  TEMP    WIND        PRES    WAVE
                       AIR SEA DIR/SP/G            HT/PER
                 (UTC) (F)     (DEG/KT/KT) (MB)    (FT/S)
W MID LAKE BUOY  1550   59 57  230/ 12/ 14 1008.9R   1/ 4
DEVILS ISLAND    1500   61     240/ 17/ 19 1009.5R
PORT WING        1500   65     210/  6/  8 1010.2
SAXON HARBOR     1500   67     190/  3/  5 1010.2
$$

LMZ867-665-643>646-021700-
LAKE MICHIGAN

STATION/POSITION TIME  TEMP    WIND        PRES    WAVE
                       AIR SEA DIR/SP/G            HT/PER
                 (UTC) (F)     (DEG/KT/KT) (MB)    (FT/S)
N MID LAKE BUOY  1550   64 65  240/  8/ 10 1010.8R   1/ 5
NORTHPORT PIER   1500   71     260/  1/  3 1010.5S
SISTER BAY       1526   76     280/  7/  8   N/A
KEWAUNEE LAKESHO 1500   69     260/  5/  7 1010.4S
SHEBOYGAN LAKESH 1600   72 49  230/  8/ 10 1011.9R
ATWATER BUOY     1600   72     140/  2/  4 1013.2F
MILWAUKEE LAKESH 1500   72     180/  4/  5   N/A
S MID LAKE BUOY  1550   70 70   CALM  /  2 1012.6R   1
KENOSHA   LAKESH 1500   72      90/  2/  2 1012.2S
$$

TC  - TEMPERATURE IN CELSIUS
VSB - VISIBILITY IN STATUTE MILES
WCI - WIND CHILL INDEX
HX  - HEAT INDEX



USA.gov is the U.S. government's official web portal to all federal, state and local government web resources and services.